Location: ????????
(41.2031°N, 22.5756°E)
Time: 05:37:21
(UTC+00:00)

Cosmos 2228 Rocket - Pass Details

Date: 01 December 2020
Orbit: 618 x 652 km, 82.5° (Epoch: 20 January)

Event Time Altitude Azimuth Distance (km) Brightness Sun altitude
Rises 15:48:05 0° 149° (SSE) 2,950 6.4 -8.8°
Reaches altitude 10° 15:50:51 10° 132° (SE) 2,040 5.5 -9.2°
Maximum altitude 15:54:02 19° 87° (E) 1,521 4.5 -9.8°
Enters shadow 15:57:00 11° 44° (NE) 1,973 5.1 -10.3°
